Portsmouth, NH

2:40 AM EST on January 22, 2018 (GMT -0500)
Pease International Tradeport

Weather History for KPSM - November, 2012

Change the Weather History Date:

Saturday, November 3, 2012

  Actual Average Record
Temperature  
Mean Temperature 47 °F -  
Max Temperature 53 °F 51 °F 77 °F (1990)
Min Temperature 42 °F 35 °F 16 °F (1980)
Degree Days  
Heating Degree Days 18    
Moisture  
Dew Point 33 °F    
Average Humidity 63    
Maximum Humidity 77    
Minimum Humidity 47    
Precipitation  
Precipitation 0.00 in - - ()
Sea Level Pressure  
Sea Level Pressure 29.68 in    
Wind  
Wind Speed 8 mph (WNW)    
Max Wind Speed 16 mph    
Max Gust Speed 25 mph    
Visibility 10 miles    
Events      
Averages and records for this station are not official NWS values.
T = Trace of Precipitation, MM = Missing Value Source: NWS Daily Summary

Daily Weather History Graph

Daily Weather History Graph

Search for Another Location

Airport or City:

Trip Planner

Search our weather history database for the weather conditions in past years. The results will help you decide how hot, cold, wet, or windy it might be!

Date:

Astronomy

Nov. 03, 2012 Rise Set
Actual Time 7:21 AM EDT 5:32 PM EDT
Civil Twilight 6:51 AM EDT 6:01 PM EDT
Nautical Twilight 6:17 AM EDT 6:35 PM EDT
Astronomical Twilight 5:44 AM EDT 7:08 PM EDT
Moon 9:07 PM EDT (11/3) 11:25 AM EDT (11/3)
Length of Visible Light 11h 10m
Length of Day
10h 10m
Waning Gibbous, 80% of the Moon is Illuminated
Nov 3
Waning Gibbous
Nov 6
Last Quarter
Nov 13
New
Nov 20
First Quarter
Nov 28
Full

Hourly Weather History & Observations

Time (EDT) Temp. Windchill Dew Point Humidity Pressure Visibility Wind Dir Wind Speed Gust Speed Precip Events Conditions
12:55 AM 42.6 °F 39.0 °F 36.0 °F 77% 29.59 in 10.0 mi West 5.8 mph - N/A   Overcast
1:55 AM 43.3 °F 39.2 °F 36.0 °F 75% 29.60 in 10.0 mi West 6.9 mph - N/A   Overcast
2:55 AM 43.3 °F 39.2 °F 35.6 °F 74% 29.60 in 10.0 mi West 6.9 mph - N/A   Overcast
3:55 AM 43.2 °F 39.0 °F 35.2 °F 74% 29.60 in 10.0 mi West 6.9 mph - N/A   Overcast
4:55 AM 43.2 °F 40.5 °F 35.4 °F 74% 29.61 in 10.0 mi West 4.6 mph - N/A   Overcast
5:55 AM 43.2 °F 39.7 °F 35.2 °F 74% 29.62 in 10.0 mi West 5.8 mph - N/A   Overcast
6:55 AM 43.5 °F 40.9 °F 35.1 °F 72% 29.64 in 10.0 mi West 4.6 mph - N/A   Overcast
7:55 AM 43.7 °F 40.3 °F 35.1 °F 72% 29.66 in 10.0 mi West 5.8 mph - N/A   Mostly Cloudy
8:55 AM 44.4 °F 41.2 °F 35.4 °F 71% 29.68 in 10.0 mi West 5.8 mph - N/A   Mostly Cloudy
9:55 AM 45.3 °F 40.6 °F 34.9 °F 67% 29.69 in 10.0 mi West 9.2 mph - N/A   Mostly Cloudy
10:55 AM 46.4 °F 41.9 °F 35.2 °F 65% 29.70 in 10.0 mi West 9.2 mph - N/A   Mostly Cloudy
11:55 AM 47.8 °F - 34.5 °F 60% 29.69 in 10.0 mi West 11.5 mph - N/A   Mostly Cloudy
12:55 PM 48.7 °F - 32.9 °F 54% 29.68 in 10.0 mi WNW 16.1 mph 21.9 mph N/A   Mostly Cloudy
1:55 PM 52.9 °F - 33.3 °F 47% 29.67 in 10.0 mi WNW 13.8 mph - N/A   Mostly Cloudy
2:55 PM 51.6 °F - 32.4 °F 48% 29.68 in 10.0 mi West 13.8 mph - N/A   Scattered Clouds
3:55 PM 51.6 °F - 32.0 °F 47% 29.68 in 10.0 mi NW 15.0 mph - N/A   Scattered Clouds
4:55 PM 49.3 °F - 31.8 °F 51% 29.70 in 10.0 mi West 10.4 mph - N/A   Scattered Clouds
5:55 PM 46.8 °F - 30.6 °F 53% 29.72 in 10.0 mi WNW 12.7 mph 21.9 mph N/A   Mostly Cloudy
6:55 PM 45.9 °F 40.8 °F 30.2 °F 54% 29.74 in 10.0 mi WNW 10.4 mph - N/A   Mostly Cloudy
7:55 PM 45.0 °F 37.9 °F 29.5 °F 55% 29.75 in 10.0 mi WNW 16.1 mph 25.3 mph N/A   Overcast
8:55 PM 43.9 °F 38.8 °F 30.2 °F 59% 29.76 in 10.0 mi WNW 9.2 mph - N/A   Overcast
9:55 PM 42.6 °F 37.2 °F 30.6 °F 62% 29.76 in 10.0 mi West 9.2 mph - N/A   Mostly Cloudy
10:55 PM 42.1 °F 37.1 °F 30.7 °F 64% 29.76 in 10.0 mi West 8.1 mph - N/A   Overcast
11:55 PM 43.2 °F 37.9 °F 31.1 °F 62% 29.75 in 10.0 mi West 9.2 mph - N/A   Overcast